Simultaneous Nadir Overpasses (SNOs) Predictions

Prediction of SNOs between LANDSAT-8 and METOP-B Satellite Orbit:

Table of predicted SNOs for the next 14.0 days since TLE Epoch: 6/20/2020
Index Date (LANDSAT-8) Time (LANDSAT-8) Lat,Lon (LANDSAT-8) SZA (LANDSAT-8 ) Date (METOP-B) Time (METOP-B) Lat,Lon (METOP-B) SZA (METOP-B ) Distance(km) Time Diff (sec)
1 06/22/2020 16:53:30 81.15, -32.86 59.90 06/22/2020 16:52:43 81.15, -33.01 59.86 2.50 47
2 06/22/2020 17:42:56 -81.17, 135.09 120.06 06/22/2020 17:43:22 -81.18, 135.21 120.03 1.95 26
3 06/25/2020 12:27:47 81.15, 33.46 59.93 06/25/2020 12:27:04 81.15, 33.52 59.92 1.27 43
4 06/25/2020 13:17:13 -81.17,-158.56 120.02 06/25/2020 13:17:44 -81.17,-158.63 120.01 1.14 31
5 06/28/2020 08:02:02 81.16, 100.12 60.06 06/28/2020 08:01:24 81.16, 100.03 60.04 1.66 38
6 06/28/2020 08:51:28 -81.18, -91.88 119.88 06/28/2020 08:52:03 -81.19, -91.72 119.85 2.65 35
7 07/01/2020 03:36:19 81.15, 166.40 60.20 07/01/2020 03:35:45 81.16, 166.53 60.20 2.40 34
8 07/01/2020 04:25:45 -81.18, -25.58 119.75 07/01/2020 04:26:25 -81.18, -25.59 119.73 0.28 40
9 07/03/2020 23:10:35 81.16,-126.97 60.43 07/03/2020 23:10:06 81.16,-126.98 60.42 0.17 29




NCC Satellite Simultaneous Nadir Overpasses (SNOs) Prediction Service
